Location: Unspecified
(57.6483°N, 3.3184°W)
Time: 23:32:48
(UTC+01:00)

N. Korean satellite - Pass Details

Date: 07 March 2021
Orbit: 452 x 499 km, 97.2° (Epoch: 21 April)

Event Time Altitude Azimuth Distance (km) Brightness Sun altitude
Rises 05:06:59 0° 21° (NNE) 2,532 10.7 -14.6°
Reaches altitude 10° 05:09:15 10° 34° (NE) 1,658 10.0 -14.4°
Maximum altitude 05:12:21 28° 95° (E) 946 8.8 -13.9°
Drops below altitude 10° 05:15:29 10° 155° (SSE) 1,670 9.4 -13.5°
Sets 05:17:46 0° 168° (SSE) 2,554 10.2 -13.2°
